Regional Weather Roundup
Issued by NWS

Home | Current Version | Previous Version | Text Only | Print | Product List | Glossary On
Versions: 1 2 3 4 5 6 7 8 9 10 11 12 13 14 15 16 17 18 19 20 21 22 23 24 25 26 27 28 29 30 31 32 33 34 35 36 37 38 39 40 41 42 43 44 45 46 47 48 49 50
000
ASUS43 KDTX 260110
RWRMI
MICHIGAN HOURLY REGIONAL WEATHER ROUNDUP
NATIONAL WEATHER SERVICE DETROIT/PONTIAC MI
900 PM EDT THU MAY 25 2017

NOTE: "FAIR" INDICATES FEW OR NO CLOUDS BELOW 12,000 FEET WITH NO
SIGNIFICANT WEATHER AND/OR OBSTRUCTION TO VISIBILITY.

MIZ047>049-052>055-059>063-066>070-074>076-081>083-260200-
SOUTHEAST LOWER MICHIGAN

CITY           SKY/WX    TMP DP  RH WIND       PRES   REMARKS
ADRIAN         MOCLDY    60  56  86 NW7       29.60R
ALMA           CLOUDY    59  55  85 NW10G17   29.61R
ANN ARBOR      CLOUDY    60  56  86 W7        29.57R
BAD AXE        RAIN      52  52  99 NE5       29.59R
CARO           CLOUDY    55  54  97 NW7       29.58R FOG
DETROIT CITY   CLOUDY    58  56  93 NW8       29.56R
DETROIT        CLOUDY    60  56  86 NW8       29.57R
FLINT          CLOUDY    55  53  93 N10       29.59R
GROSSE ILE     CLOUDY    60  56  86 NW7G16    29.55R
HILLSDALE      DRIZZLE   59  54  82 NW7       29.61R
HOWELL         RAIN      58  55  90 N5        29.59R

CITY           SKY/WX    TMP DP  RH WIND       PRES   REMARKS
JACKSON        CLOUDY    60  56  86 W6        29.60R
LAMBERTVILLE   CLOUDY    61  56  83 CALM      29.58R
LANSING        CLOUDY    60  53  77 N7        29.61R
LAPEER         DRIZZLE   55  54  97 NW6       29.58R
MASON          CLOUDY    60  55  86 N12       29.60R
MONROE         CLOUDY    60  57  89 NW7       29.56R
MT. CLEMENS    LGT RAIN  58  58 100 NW8       29.54R FOG
PONTIAC        DRIZZLE   56  53  90 NW13      29.56R
PORT HOPE        N/A     50  49  96 NE7       29.57R
PORT HURON     LGT RAIN  54  52  94 N5        29.56R
TRI CITIES     LGT RAIN  56  54  93 N13       29.61R
MIDLAND        RAIN      56  52  86 N6        29.61R
TROY           CLOUDY    58  54  85 NW7       29.58R
SAGINAW HB     CLOUDY    54  52  94 N10       29.59R
$$
MIZ043>046-050>051-056>058-064>065-071>073-077>080-260200-
SOUTHWEST LOWER MICHIGAN

CITY           SKY/WX    TMP DP  RH WIND       PRES   REMARKS
BATTLE CREEK   PTCLDY    60  57  89 W8        29.62R
BENTON HARBOR  PTCLDY    50  48  93 W6        29.67R
BIG RAPIDS     CLOUDY    60  52  75 NW3       29.62R
COLDWATER      CLOUDY    61  58  89 W7        29.62R
FREMONT        FAIR      61  51  70 N5        29.63R
HOLLAND        CLEAR     60  52  74 NW6       29.64R
GRAND RAPIDS   MOCLDY    64  54  69 N9        29.61R
IONIA          CLOUDY    61  54  77 NW8       29.61R
KALAMAZOO      CLEAR     61  53  75 W5        29.63R
LUDINGTON      CLEAR     57  52  83 N7        29.64S
MARSHALL       CLOUDY    60  60  98 CALM      29.61R
MOUNT PLEASANT MOCLDY    57  54  89 N3        29.61R
MUSKEGON       MOCLDY    64  54  69 NW6       29.63R
SOUTH HAVEN    CLEAR     53  51  92 W3        29.66R
$$
MIZ016>042-260200-
NORTHERN LOWER MICHIGAN

CITY           SKY/WX    TMP DP  RH WIND       PRES   REMARKS
ALPENA         LGT RAIN  54  54 100 N7        29.65S FOG
BEAVER ISLAND  CLOUDY    56  54  92 E6        29.72R
BELLAIRE       CLOUDY    57  51  81 NE6       29.67R
CADILLAC       CLOUDY    57  51  80 N10       29.64R
CHARLEVOIX     CLOUDY    56  53  89 NE7       29.71R
FRANKFORT      CLEAR     55  50  83 N5        29.68R
GAYLORD        CLOUDY    54  50  86 NE12      29.67R
GRAYLING       CLOUDY    54  52  94 N8        29.67R
HARBOR SPRINGS CLOUDY    55  54  97 NE7       29.69R
HOUGHTON LAKE  CLOUDY    55  51  86 N9        29.65R
MANISTEE       PTCLDY    58  52  80 N6        29.65R
OSCODA         CLOUDY    52  51  97 N9G16     29.62R
PELLSTON       CLOUDY    55  52  89 NE6       29.70R
ROGERS CITY    FOG       51  51  98 N5        29.68R VSB 1/4
TRAVERSE CITY  CLOUDY    56  50  80 E5        29.65R
$$
MIZ007>008-015-260200-
EASTERN UPPER MICHIGAN

CITY           SKY/WX    TMP DP  RH WIND       PRES   REMARKS
KINROSS        CLOUDY    57  53  86 NE7       29.71R
MACKINAC ISLAN HVY RAIN  53  53 100 NE6       29.70R
NEWBERRY       CLOUDY    57  54  89 NE7       29.73R
S. S. MARIE    CLOUDY    60  53  77 NE3       29.71R
MUNISING         N/A     46  43  89 NE3       29.74S
$$
MIZ004>006-011>014-085-260200-
CENTRAL UPPER MICHIGAN

CITY           SKY/WX    TMP DP  RH WIND       PRES   REMARKS
MANISTIQUE     CLOUDY    59  52  78 NE6       29.71R
ESCANABA       CLOUDY    57  53  86 CALM      29.72R
MENOMINEE      CLEAR     57  51  80 E9        29.72R
SAWYER-GWINN   PTCLDY    55  46  71 NE9       29.75R
$$
MIZ001>003-009>011-084-260200-
WESTERN UPPER MICHIGAN

CITY           SKY/WX    TMP DP  RH WIND       PRES   REMARKS
IRON MOUNTAIN  CLEAR     66  43  43 NE8       29.70R
HOUGHTON       CLEAR     55  45  68 E8        29.73R
COPPER HARBOR    N/A     48  43  82 CALM      29.73S
IRONWOOD       CLEAR     66  48  52 NE7       29.69R
$$

ABBREVIATIONS USED IN REMARKS
   TC - TEMPERATURE IN CELSIUS
  WCI - WIND CHILL INDEX
   HX - HEAT INDEX
  VSB - VISIBILITY





USA.gov is the U.S. government's official web portal to all federal, state and local government web resources and services.